Time,TemperatureF,DewpointF,PressureIn,WindDirection,WindDirectionDegrees,WindSpeedMPH,WindSpeedGustMPH,Humidity,HourlyPrecipIn,Conditions,Clouds,dailyrainin,SoftwareType,DateUTC
2013-06-17 00:01:00,58.8,55.6,29.88,West,265,10.0,20.0,89,0.00,,,0.00,meteohub,2013-06-17 04:01:00,
2013-06-17 00:02:00,58.8,55.6,29.88,SW,219,13.0,20.0,89,0.00,,,0.00,meteohub,2013-06-17 04:02:00,
2013-06-17 00:03:00,58.8,55.6,29.88,SW,230,11.0,20.0,89,0.00,,,0.00,meteohub,2013-06-17 04:03:00,
2013-06-17 00:07:00,58.8,55.9,29.88,WSW,257,11.0,20.0,90,0.00,,,0.00,meteohub,2013-06-17 04:07:00,
2013-06-17 00:12:00,58.8,55.9,29.88,WNW,296,8.0,23.0,90,0.00,,,0.00,meteohub,2013-06-17 04:12:00,
2013-06-17 00:17:00,58.8,55.9,29.88,West,269,16.0,25.0,90,0.00,,,0.00,meteohub,2013-06-17 04:17:00,
2013-06-17 00:22:00,58.8,55.9,29.88,SSW,213,5.0,26.0,90,0.00,,,0.00,meteohub,2013-06-17 04:22:00,
2013-06-17 00:27:00,58.6,55.9,29.88,West,272,23.0,26.0,91,0.00,,,0.00,meteohub,2013-06-17 04:27:00,
2013-06-17 00:32:00,58.6,55.9,29.89,West,275,10.0,23.0,91,0.00,,,0.00,meteohub,2013-06-17 04:32:00,
2013-06-17 00:37:00,58.6,55.9,29.88,SW,224,6.0,23.0,91,0.00,,,0.00,meteohub,2013-06-17 04:37:00,
2013-06-17 00:42:00,58.6,55.9,29.89,NW,325,11.0,23.0,91,0.00,,,0.00,meteohub,2013-06-17 04:42:00,
2013-06-17 00:48:00,58.6,56.3,29.89,West,261,10.0,20.0,92,0.00,,,0.00,meteohub,2013-06-17 04:48:00,
2013-06-17 00:53:00,58.5,56.1,29.88,SW,234,18.0,20.0,92,0.00,,,0.00,meteohub,2013-06-17 04:53:00,
2013-06-17 00:58:00,58.5,56.1,29.88,SSW,209,5.0,22.0,92,0.00,,,0.00,meteohub,2013-06-17 04:58:00,
2013-06-17 01:03:00,58.5,55.6,29.88,WSW,248,25.0,25.0,90,0.00,,,0.00,meteohub,2013-06-17 05:03:00,
2013-06-17 01:08:00,58.6,55.8,29.88,NNW,336,6.0,25.0,90,0.00,,,0.00,meteohub,2013-06-17 05:08:00,
2013-06-17 01:14:00,58.6,55.9,29.88,WSW,253,7.0,25.0,91,0.00,,,0.00,meteohub,2013-06-17 05:14:00,
2013-06-17 01:19:00,58.6,55.9,29.88,WSW,250,7.0,25.0,91,0.00,,,0.00,meteohub,2013-06-17 05:19:00,
2013-06-17 01:24:00,58.6,55.8,29.88,WSW,246,11.0,24.0,90,0.00,,,0.00,meteohub,2013-06-17 05:24:00,
2013-06-17 01:29:00,58.8,55.9,29.87,SW,230,14.0,24.0,90,0.00,,,0.00,meteohub,2013-06-17 05:29:00,
2013-06-17 01:34:00,58.8,55.9,29.88,West,267,10.0,24.0,90,0.00,,,0.00,meteohub,2013-06-17 05:34:00,
2013-06-17 01:39:00,58.8,55.6,29.88,SW,235,14.0,22.0,89,0.00,,,0.00,meteohub,2013-06-17 05:39:00,
2013-06-17 01:44:00,58.8,55.9,29.88,WNW,287,10.0,19.0,90,0.00,,,0.00,meteohub,2013-06-17 05:44:00,
2013-06-17 01:49:00,58.8,55.9,29.87,WSW,241,12.0,20.0,90,0.00,,,0.00,meteohub,2013-06-17 05:49:00,
2013-06-17 01:54:00,58.8,55.6,29.88,SW,219,11.0,21.0,89,0.00,,,0.00,meteohub,2013-06-17 05:54:00,
2013-06-17 02:00:00,58.8,55.9,29.87,West,280,12.0,21.0,90,0.00,,,0.00,meteohub,2013-06-17 06:00:00,
2013-06-17 02:05:00,58.6,55.8,29.87,WSW,254,8.0,21.0,90,0.00,,,0.00,meteohub,2013-06-17 06:05:00,
2013-06-17 02:10:00,58.6,55.8,29.88,WSW,245,10.0,19.0,90,0.00,,,0.00,meteohub,2013-06-17 06:10:00,
2013-06-17 02:15:00,58.5,55.8,29.87,South,186,6.0,19.0,91,0.00,,,0.00,meteohub,2013-06-17 06:15:00,
2013-06-17 02:20:00,58.5,55.6,29.87,South,186,8.0,19.0,90,0.00,,,0.00,meteohub,2013-06-17 06:20:00,
2013-06-17 02:25:00,58.5,55.6,29.87,WNW,285,9.0,19.0,90,0.00,,,0.00,meteohub,2013-06-17 06:25:00,
2013-06-17 02:30:00,58.5,55.6,29.87,SW,224,11.0,20.0,90,0.00,,,0.00,meteohub,2013-06-17 06:30:00,
2013-06-17 02:35:00,58.5,55.6,29.87,West,261,14.0,20.0,90,0.00,,,0.00,meteohub,2013-06-17 06:35:00,
2013-06-17 02:41:00,58.5,55.6,29.87,NW,315,7.0,19.0,90,0.00,,,0.00,meteohub,2013-06-17 06:41:00,
2013-06-17 02:46:00,58.3,55.4,29.87,WSW,238,7.0,20.0,90,0.00,,,0.00,meteohub,2013-06-17 06:46:00,
2013-06-17 02:51:00,58.1,55.2,29.86,West,272,8.0,20.0,90,0.00,,,0.00,meteohub,2013-06-17 06:51:00,
2013-06-17 02:56:00,57.9,55.2,29.86,WSW,258,8.0,22.0,91,0.00,,,0.00,meteohub,2013-06-17 06:56:00,
2013-06-17 03:01:00,57.7,55.4,29.86,SSW,204,8.0,22.0,92,0.00,,,0.00,meteohub,2013-06-17 07:01:00,
2013-06-17 03:06:00,57.9,55.6,29.87,WSW,245,4.0,22.0,92,0.00,,,0.00,meteohub,2013-06-17 07:06:00,
2013-06-17 03:11:00,57.9,55.2,29.87,WNW,292,8.0,16.0,91,0.00,,,0.00,meteohub,2013-06-17 07:11:00,
2013-06-17 03:17:00,57.9,55.2,29.87,WSW,242,6.0,16.0,91,0.00,,,0.00,meteohub,2013-06-17 07:17:00,
2013-06-17 03:22:00,58.1,55.4,29.87,WSW,244,10.0,20.0,91,0.00,,,0.00,meteohub,2013-06-17 07:22:00,
2013-06-17 03:27:00,57.9,55.2,29.87,West,261,10.0,20.0,91,0.00,,,0.00,meteohub,2013-06-17 07:27:00,
2013-06-17 03:32:00,57.9,55.2,29.87,NW,309,7.0,20.0,91,0.00,,,0.00,meteohub,2013-06-17 07:32:00,
2013-06-17 03:37:00,57.7,54.9,29.88,WNW,301,8.0,18.0,90,0.00,,,0.00,meteohub,2013-06-17 07:37:00,
2013-06-17 03:42:00,57.7,54.9,29.88,NW,315,5.0,16.0,90,0.00,,,0.00,meteohub,2013-06-17 07:42:00,
2013-06-17 03:47:00,57.6,54.7,29.87,WNW,302,13.0,16.0,90,0.00,,,0.00,meteohub,2013-06-17 07:47:00,
2013-06-17 03:52:00,57.7,54.1,29.88,NW,305,6.0,16.0,88,0.00,,,0.00,meteohub,2013-06-17 07:52:00,
2013-06-17 03:57:00,57.6,54.3,29.88,West,273,10.0,18.0,89,0.00,,,0.00,meteohub,2013-06-17 07:57:00,
2013-06-17 04:02:00,57.6,54.3,29.88,West,259,11.0,18.0,89,0.00,,,0.00,meteohub,2013-06-17 08:02:00,
2013-06-17 04:07:00,57.4,54.1,29.88,WSW,251,6.0,16.0,89,0.00,,,0.00,meteohub,2013-06-17 08:07:00,
2013-06-17 04:12:00,57.4,54.9,29.88,NW,325,4.0,16.0,91,0.00,,,0.00,meteohub,2013-06-17 08:12:00,
2013-06-17 04:17:00,57.0,54.5,29.88,NNW,327,11.0,16.0,91,0.00,,,0.00,meteohub,2013-06-17 08:17:00,
2013-06-17 04:22:00,57.0,54.5,29.88,WSW,242,5.0,15.0,91,0.00,,,0.00,meteohub,2013-06-17 08:22:00,
2013-06-17 04:27:00,57.0,54.5,29.88,WSW,255,11.0,18.0,91,0.00,,,0.00,meteohub,2013-06-17 08:27:00,
2013-06-17 04:32:00,57.0,54.5,29.88,NNW,335,4.0,18.0,91,0.00,,,0.00,meteohub,2013-06-17 08:32:00,
2013-06-17 04:37:00,57.2,54.3,29.88,NW,321,7.0,18.0,90,0.00,,,0.00,meteohub,2013-06-17 08:37:00,
2013-06-17 04:42:00,57.0,54.1,29.88,NW,318,6.0,20.0,90,0.00,,,0.00,meteohub,2013-06-17 08:42:00,
2013-06-17 04:47:00,57.0,54.1,29.88,NW,325,5.0,20.0,90,0.00,,,0.00,meteohub,2013-06-17 08:47:00,
2013-06-17 04:52:00,57.0,54.1,29.88,WNW,301,6.0,15.0,90,0.00,,,0.00,meteohub,2013-06-17 08:52:00,
2013-06-17 04:57:00,57.4,54.1,29.89,WNW,292,5.0,16.0,89,0.00,,,0.00,meteohub,2013-06-17 08:57:00,
2013-06-17 05:02:00,57.2,54.0,29.89,NNW,334,6.0,19.0,89,0.00,,,0.00,meteohub,2013-06-17 09:02:00,
2013-06-17 05:07:00,56.8,54.0,29.88,West,275,3.0,19.0,90,0.00,,,0.00,meteohub,2013-06-17 09:07:00,
2013-06-17 05:12:00,56.8,53.6,29.89,WSW,255,5.0,19.0,89,0.00,,,0.00,meteohub,2013-06-17 09:12:00,
2013-06-17 05:17:00,56.8,53.6,29.89,SW,231,6.0,14.0,89,0.00,,,0.00,meteohub,2013-06-17 09:17:00,
2013-06-17 05:22:00,56.8,54.0,29.89,WSW,249,6.0,13.0,90,0.00,,,0.00,meteohub,2013-06-17 09:22:00,
2013-06-17 05:27:00,56.8,53.6,29.89,WNW,290,13.0,13.0,89,0.00,,,0.00,meteohub,2013-06-17 09:27:00,
2013-06-17 05:32:00,56.8,53.6,29.89,WSW,248,11.0,18.0,89,0.00,,,0.00,meteohub,2013-06-17 09:32:00,
2013-06-17 05:37:00,57.0,53.8,29.89,SW,215,9.0,18.0,89,0.00,,,0.00,meteohub,2013-06-17 09:37:00,
2013-06-17 05:42:00,57.0,53.4,29.90,West,273,12.0,18.0,88,0.00,,,0.00,meteohub,2013-06-17 09:42:00,
2013-06-17 05:47:00,57.2,54.0,29.90,West,259,7.0,15.0,89,0.00,,,0.00,meteohub,2013-06-17 09:47:00,
2013-06-17 05:52:00,57.2,54.3,29.90,WNW,297,7.0,15.0,90,0.00,,,0.00,meteohub,2013-06-17 09:52:00,
2013-06-17 05:57:00,57.0,54.5,29.89,WNW,293,10.0,15.0,91,0.00,,,0.00,meteohub,2013-06-17 09:57:00,
2013-06-17 06:02:00,57.0,54.5,29.90,West,277,12.0,19.0,91,0.00,,,0.00,meteohub,2013-06-17 10:02:00,
2013-06-17 06:07:00,56.8,54.5,29.89,WNW,284,10.0,19.0,92,0.00,,,0.00,meteohub,2013-06-17 10:07:00,
2013-06-17 06:12:00,56.8,54.9,29.90,NW,311,9.0,16.0,93,0.00,,,0.00,meteohub,2013-06-17 10:12:00,
2013-06-17 06:17:00,56.8,54.5,29.90,West,281,9.0,14.0,92,0.00,,,0.00,meteohub,2013-06-17 10:17:00,
2013-06-17 06:22:00,56.8,54.5,29.90,WNW,290,11.0,16.0,92,0.00,,,0.00,meteohub,2013-06-17 10:22:00,
2013-06-17 06:27:00,56.8,54.5,29.91,NW,315,9.0,16.0,92,0.00,,,0.00,meteohub,2013-06-17 10:27:00,
2013-06-17 06:32:00,57.0,54.7,29.91,WNW,294,9.0,15.0,92,0.00,,,0.00,meteohub,2013-06-17 10:32:00,
2013-06-17 06:37:00,57.4,55.0,29.91,WSW,248,10.0,14.0,92,0.00,,,0.00,meteohub,2013-06-17 10:37:00,
2013-06-17 06:42:00,57.2,54.9,29.91,SW,229,9.0,14.0,92,0.00,,,0.00,meteohub,2013-06-17 10:42:00,
2013-06-17 06:47:00,57.2,54.9,29.91,WNW,282,8.0,12.0,92,0.00,,,0.00,meteohub,2013-06-17 10:47:00,
2013-06-17 06:52:00,57.4,55.0,29.91,SW,234,5.0,13.0,92,0.00,,,0.00,meteohub,2013-06-17 10:52:00,
2013-06-17 06:57:00,57.6,54.7,29.91,WNW,296,10.0,13.0,90,0.00,,,0.00,meteohub,2013-06-17 10:57:00,
2013-06-17 07:02:00,57.7,54.9,29.91,WNW,298,8.0,13.0,90,0.00,,,0.00,meteohub,2013-06-17 11:02:00,
2013-06-17 07:07:00,57.9,55.2,29.91,WNW,297,5.0,13.0,91,0.00,,,0.00,meteohub,2013-06-17 11:07:00,
2013-06-17 07:12:00,58.3,55.0,29.91,WSW,237,7.0,13.0,89,0.00,,,0.00,meteohub,2013-06-17 11:12:00,
2013-06-17 07:17:00,58.6,55.0,29.91,West,267,9.0,10.0,88,0.00,,,0.00,meteohub,2013-06-17 11:17:00,
2013-06-17 07:22:00,58.8,55.2,29.92,SSW,205,5.0,11.0,88,0.00,,,0.00,meteohub,2013-06-17 11:22:00,
2013-06-17 07:27:00,59.2,55.6,29.92,SW,228,6.0,11.0,88,0.00,,,0.00,meteohub,2013-06-17 11:27:00,
2013-06-17 07:32:00,59.4,55.8,29.91,WSW,252,6.0,12.0,88,0.00,,,0.00,meteohub,2013-06-17 11:32:00,
2013-06-17 07:37:00,59.2,55.6,29.91,SSW,213,6.0,12.0,88,0.00,,,0.00,meteohub,2013-06-17 11:37:00,
2013-06-17 07:42:00,59.4,55.4,29.91,South,186,6.0,15.0,87,0.00,,,0.00,meteohub,2013-06-17 11:42:00,
2013-06-17 07:47:00,59.5,55.9,29.92,SSW,198,4.0,15.0,88,0.00,,,0.00,meteohub,2013-06-17 11:47:00,
2013-06-17 07:52:00,59.7,55.6,29.92,South,186,7.0,15.0,86,0.00,,,0.00,meteohub,2013-06-17 11:52:00,
2013-06-17 07:57:00,60.1,55.9,29.92,SW,233,7.0,12.0,86,0.00,,,0.00,meteohub,2013-06-17 11:57:00,
2013-06-17 08:02:00,60.1,55.9,29.92,SSW,192,6.0,15.0,86,0.00,,,0.00,meteohub,2013-06-17 12:02:00,
2013-06-17 08:07:00,60.3,56.1,29.92,SSW,207,4.0,15.0,86,0.00,,,0.00,meteohub,2013-06-17 12:07:00,
2013-06-17 08:12:00,60.6,56.1,29.92,SSW,200,5.0,15.0,85,0.00,,,0.00,meteohub,2013-06-17 12:12:00,
2013-06-17 08:17:00,61.0,55.8,29.93,SW,224,6.0,14.0,83,0.00,,,0.00,meteohub,2013-06-17 12:17:00,
2013-06-17 08:22:00,61.2,55.9,29.92,WSW,254,15.0,15.0,83,0.00,,,0.00,meteohub,2013-06-17 12:22:00,
2013-06-17 08:27:00,61.2,55.9,29.92,NNW,348,4.0,15.0,83,0.00,,,0.00,meteohub,2013-06-17 12:27:00,
2013-06-17 08:32:00,61.5,56.3,29.93,NNW,339,5.0,15.0,83,0.00,,,0.00,meteohub,2013-06-17 12:32:00,
2013-06-17 08:37:00,61.3,56.1,29.93,WNW,288,5.0,15.0,83,0.00,,,0.00,meteohub,2013-06-17 12:37:00,
2013-06-17 08:42:00,61.2,55.9,29.93,West,272,2.0,11.0,83,0.00,,,0.00,meteohub,2013-06-17 12:42:00,
2013-06-17 08:47:00,61.3,56.8,29.92,SSW,211,8.0,11.0,85,0.00,,,0.00,meteohub,2013-06-17 12:47:00,
2013-06-17 08:52:00,61.5,56.7,29.92,SSW,204,10.0,13.0,84,0.00,,,0.00,meteohub,2013-06-17 12:52:00,
2013-06-17 08:57:00,61.9,56.7,29.92,SW,236,5.0,18.0,83,0.00,,,0.00,meteohub,2013-06-17 12:57:00,
2013-06-17 09:02:00,62.2,57.0,29.92,SSE,163,2.0,18.0,83,0.00,,,0.00,meteohub,2013-06-17 13:02:00,
2013-06-17 09:07:00,62.2,57.0,29.92,SSW,208,5.0,14.0,83,0.00,,,0.00,meteohub,2013-06-17 13:07:00,
2013-06-17 09:12:00,62.4,56.5,29.92,SSE,153,9.0,14.0,81,0.00,,,0.00,meteohub,2013-06-17 13:12:00,
2013-06-17 09:17:00,62.6,57.0,29.92,SW,236,5.0,14.0,82,0.00,,,0.00,meteohub,2013-06-17 13:17:00,
2013-06-17 09:22:00,62.6,57.0,29.91,South,173,5.0,14.0,82,0.00,,,0.00,meteohub,2013-06-17 13:22:00,
2013-06-17 09:27:00,62.4,56.8,29.92,SE,144,4.0,15.0,82,0.00,,,0.00,meteohub,2013-06-17 13:27:00,
2013-06-17 09:32:00,62.4,56.8,29.91,SSE,167,7.0,21.0,82,0.00,,,0.00,meteohub,2013-06-17 13:32:00,
2013-06-17 09:37:00,62.4,57.2,29.92,SW,235,7.0,21.0,83,0.00,,,0.00,meteohub,2013-06-17 13:37:00,
2013-06-17 09:42:00,62.4,56.5,29.91,WSW,243,11.0,21.0,81,0.00,,,0.00,meteohub,2013-06-17 13:42:00,
2013-06-17 09:47:00,62.8,56.8,29.91,West,275,5.0,21.0,81,0.00,,,0.00,meteohub,2013-06-17 13:47:00,
2013-06-17 09:52:00,63.1,55.4,29.91,SW,220,7.0,21.0,76,0.00,,,0.00,meteohub,2013-06-17 13:52:00,
2013-06-17 09:57:00,63.3,56.7,29.91,WSW,242,10.0,21.0,79,0.00,,,0.00,meteohub,2013-06-17 13:57:00,
2013-06-17 10:02:00,63.0,55.6,29.91,West,273,18.0,19.0,77,0.00,,,0.00,meteohub,2013-06-17 14:02:00,
2013-06-17 10:07:00,63.1,55.8,29.91,WSW,247,12.0,27.0,77,0.00,,,0.00,meteohub,2013-06-17 14:07:00,
2013-06-17 10:12:00,63.7,56.3,29.91,SW,220,12.0,27.0,77,0.00,,,0.00,meteohub,2013-06-17 14:12:00,
2013-06-17 10:17:00,63.7,55.9,29.91,SW,229,5.0,27.0,76,0.00,,,0.00,meteohub,2013-06-17 14:17:00,
2013-06-17 10:22:00,64.0,55.9,29.91,SW,234,6.0,21.0,75,0.00,,,0.00,meteohub,2013-06-17 14:22:00,
2013-06-17 10:27:00,64.4,56.3,29.91,West,274,12.0,21.0,75,0.00,,,0.00,meteohub,2013-06-17 14:27:00,
2013-06-17 10:32:00,64.4,56.3,29.91,WSW,238,5.0,18.0,75,0.00,,,0.00,meteohub,2013-06-17 14:32:00,
2013-06-17 10:37:00,64.8,56.3,29.91,West,268,7.0,16.0,74,0.00,,,0.00,meteohub,2013-06-17 14:37:00,
2013-06-17 10:42:00,64.6,55.0,29.91,WSW,256,5.0,21.0,71,0.00,,,0.00,meteohub,2013-06-17 14:42:00,
2013-06-17 10:47:00,64.6,55.8,29.91,WSW,246,9.0,21.0,73,0.00,,,0.00,meteohub,2013-06-17 14:47:00,
2013-06-17 10:52:00,64.8,55.6,29.91,SW,234,10.0,21.0,72,0.00,,,0.00,meteohub,2013-06-17 14:52:00,
2013-06-17 10:57:00,64.9,56.8,29.91,WSW,252,12.0,18.0,75,0.00,,,0.00,meteohub,2013-06-17 14:57:00,
2013-06-17 11:02:00,65.1,55.4,29.91,WNW,284,6.0,14.0,71,0.00,,,0.00,meteohub,2013-06-17 15:02:00,
2013-06-17 11:07:00,65.5,56.3,29.90,WSW,253,12.0,14.0,72,0.00,,,0.00,meteohub,2013-06-17 15:07:00,
2013-06-17 11:12:00,65.5,55.4,29.91,SW,231,15.0,19.0,70,0.00,,,0.00,meteohub,2013-06-17 15:12:00,
2013-06-17 11:17:00,65.8,55.8,29.90,WNW,287,4.0,20.0,70,0.00,,,0.00,meteohub,2013-06-17 15:17:00,
2013-06-17 11:22:00,66.6,55.6,29.90,WSW,246,6.0,20.0,68,0.00,,,0.00,meteohub,2013-06-17 15:22:00,
2013-06-17 11:27:00,66.4,54.3,29.90,SW,234,9.0,19.0,65,0.00,,,0.00,meteohub,2013-06-17 15:27:00,
2013-06-17 11:32:00,66.6,54.5,29.90,SSE,168,11.0,20.0,65,0.00,,,0.00,meteohub,2013-06-17 15:32:00,
2013-06-17 11:37:00,66.7,53.2,29.90,NW,315,8.0,20.0,62,0.00,,,0.00,meteohub,2013-06-17 15:37:00,
2013-06-17 11:42:00,66.4,54.3,29.90,WSW,248,10.0,20.0,65,0.00,,,0.00,meteohub,2013-06-17 15:42:00,
2013-06-17 11:47:00,66.9,52.5,29.90,WNW,298,5.0,20.0,60,0.00,,,0.00,meteohub,2013-06-17 15:47:00,
2013-06-17 11:52:00,66.9,52.2,29.91,SSW,212,11.0,20.0,59,0.00,,,0.00,meteohub,2013-06-17 15:52:00,
2013-06-17 11:57:00,67.1,53.2,29.91,SW,225,11.0,16.0,61,0.00,,,0.00,meteohub,2013-06-17 15:57:00,
2013-06-17 12:02:00,66.4,52.5,29.91,WSW,239,7.0,16.0,61,0.00,,,0.00,meteohub,2013-06-17 16:02:00,
2013-06-17 12:07:00,66.2,54.5,29.91,WNW,284,4.0,19.0,66,0.00,,,0.00,meteohub,2013-06-17 16:07:00,
2013-06-17 12:12:00,67.3,52.9,29.90,NW,321,8.0,19.0,60,0.00,,,0.00,meteohub,2013-06-17 16:12:00,
2013-06-17 12:17:00,67.6,54.7,29.91,WSW,252,12.0,18.0,63,0.00,,,0.00,meteohub,2013-06-17 16:17:00,
2013-06-17 12:22:00,67.6,53.2,29.91,South,188,8.0,19.0,60,0.00,,,0.00,meteohub,2013-06-17 16:22:00,
2013-06-17 12:27:00,67.5,53.1,29.91,WSW,243,5.0,21.0,60,0.00,,,0.00,meteohub,2013-06-17 16:27:00,
2013-06-17 12:32:00,67.5,50.7,29.90,West,266,7.0,21.0,55,0.00,,,0.00,meteohub,2013-06-17 16:32:00,
2013-06-17 12:38:00,67.8,52.5,29.91,South,180,5.0,21.0,58,0.00,,,0.00,meteohub,2013-06-17 16:38:00,
2013-06-17 12:43:00,67.5,52.7,29.90,WSW,254,10.0,19.0,59,0.00,,,0.00,meteohub,2013-06-17 16:43:00,
2013-06-17 12:48:00,67.3,50.0,29.90,South,188,13.0,21.0,54,0.00,,,0.00,meteohub,2013-06-17 16:48:00,
2013-06-17 12:53:00,66.7,52.0,29.91,West,261,10.0,21.0,59,0.00,,,0.00,meteohub,2013-06-17 16:53:00,
2013-06-17 12:58:00,67.3,52.9,29.90,West,271,10.0,21.0,60,0.00,,,0.00,meteohub,2013-06-17 16:58:00,
2013-06-17 13:03:00,67.6,51.4,29.90,South,178,8.0,19.0,56,0.00,,,0.00,meteohub,2013-06-17 17:03:00,
2013-06-17 13:08:00,67.8,51.1,29.90,SW,221,10.0,19.0,55,0.00,,,0.00,meteohub,2013-06-17 17:08:00,
2013-06-17 13:13:00,67.6,52.9,29.89,SW,229,12.0,18.0,59,0.00,,,0.00,meteohub,2013-06-17 17:13:00,
2013-06-17 13:18:00,67.8,52.0,29.89,WSW,246,10.0,18.0,57,0.00,,,0.00,meteohub,2013-06-17 17:18:00,
2013-06-17 13:24:00,68.2,51.4,29.89,SW,232,8.0,21.0,55,0.00,,,0.00,meteohub,2013-06-17 17:24:00,
2013-06-17 13:29:00,68.5,50.2,29.88,WSW,257,20.0,21.0,52,0.00,,,0.00,meteohub,2013-06-17 17:29:00,
2013-06-17 13:34:00,68.4,50.5,29.89,SW,219,9.0,20.0,53,0.00,,,0.00,meteohub,2013-06-17 17:34:00,
2013-06-17 13:39:00,68.9,50.0,29.89,West,265,9.0,23.0,51,0.00,,,0.00,meteohub,2013-06-17 17:39:00,
2013-06-17 13:44:00,68.7,49.8,29.88,SSW,209,9.0,23.0,51,0.00,,,0.00,meteohub,2013-06-17 17:44:00,
2013-06-17 13:49:00,69.4,51.1,29.88,West,275,6.0,23.0,52,0.00,,,0.00,meteohub,2013-06-17 17:49:00,
2013-06-17 13:54:00,70.0,52.0,29.88,WNW,297,7.0,25.0,53,0.00,,,0.00,meteohub,2013-06-17 17:54:00,
2013-06-17 13:59:00,70.3,52.9,29.88,SW,232,10.0,25.0,54,0.00,,,0.00,meteohub,2013-06-17 17:59:00,
2013-06-17 14:04:00,69.6,50.7,29.88,WSW,247,14.0,14.0,51,0.00,,,0.00,meteohub,2013-06-17 18:04:00,
2013-06-17 14:10:00,69.6,50.2,29.88,SW,227,7.0,20.0,50,0.00,,,0.00,meteohub,2013-06-17 18:10:00,
2013-06-17 14:15:00,70.0,50.5,29.88,SSW,198,9.0,20.0,50,0.00,,,0.00,meteohub,2013-06-17 18:15:00,
2013-06-17 14:20:00,69.1,51.3,29.88,WSW,238,10.0,18.0,53,0.00,,,0.00,meteohub,2013-06-17 18:20:00,
2013-06-17 14:25:00,69.3,51.4,29.88,WSW,254,13.0,18.0,53,0.00,,,0.00,meteohub,2013-06-17 18:25:00,
2013-06-17 14:30:00,69.1,51.3,29.88,West,277,6.0,18.0,53,0.00,,,0.00,meteohub,2013-06-17 18:30:00,
2013-06-17 14:35:00,68.4,50.0,29.88,WSW,250,13.0,19.0,52,0.00,,,0.00,meteohub,2013-06-17 18:35:00,
2013-06-17 14:40:00,68.4,50.5,29.88,NW,315,16.0,19.0,53,0.00,,,0.00,meteohub,2013-06-17 18:40:00,
2013-06-17 14:46:00,68.2,50.4,29.88,SSW,195,6.0,22.0,53,0.00,,,0.00,meteohub,2013-06-17 18:46:00,
2013-06-17 14:51:00,68.5,52.2,29.88,NW,309,6.0,22.0,56,0.00,,,0.00,meteohub,2013-06-17 18:51:00,
2013-06-17 14:56:00,69.6,51.8,29.88,WSW,257,9.0,22.0,53,0.00,,,0.00,meteohub,2013-06-17 18:56:00,
2013-06-17 15:01:00,69.6,51.3,29.88,SW,221,10.0,16.0,52,0.00,,,0.00,meteohub,2013-06-17 19:01:00,
2013-06-17 15:06:00,69.6,52.7,29.88,West,267,6.0,24.0,55,0.00,,,0.00,meteohub,2013-06-17 19:06:00,
2013-06-17 15:11:00,70.2,49.6,29.88,WNW,302,7.0,24.0,48,0.00,,,0.00,meteohub,2013-06-17 19:11:00,
2013-06-17 15:16:00,70.3,51.8,29.88,SSW,204,5.0,24.0,52,0.00,,,0.00,meteohub,2013-06-17 19:16:00,
2013-06-17 15:21:00,70.2,50.7,29.88,WSW,242,7.0,23.0,50,0.00,,,0.00,meteohub,2013-06-17 19:21:00,
2013-06-17 15:26:00,69.4,51.1,29.88,SW,234,11.0,19.0,52,0.00,,,0.00,meteohub,2013-06-17 19:26:00,
2013-06-17 15:32:00,68.7,51.4,29.88,West,275,9.0,18.0,54,0.00,,,0.00,meteohub,2013-06-17 19:32:00,
2013-06-17 15:37:00,68.4,51.1,29.88,NW,308,6.0,26.0,54,0.00,,,0.00,meteohub,2013-06-17 19:37:00,
2013-06-17 15:42:00,68.2,49.3,29.88,NW,323,19.0,26.0,51,0.00,,,0.00,meteohub,2013-06-17 19:42:00,
2013-06-17 15:47:00,67.6,48.9,29.89,NW,304,18.0,28.0,51,0.00,,,0.00,meteohub,2013-06-17 19:47:00,
2013-06-17 15:52:00,67.3,49.6,29.90,North,350,15.0,28.0,53,0.00,,,0.00,meteohub,2013-06-17 19:52:00,
2013-06-17 15:57:00,59.7,49.1,29.92,WSW,258,20.0,29.0,68,0.00,,,0.00,meteohub,2013-06-17 19:57:00,
2013-06-17 16:02:00,56.7,49.8,29.92,WSW,253,11.0,37.0,78,0.00,,,0.00,meteohub,2013-06-17 20:02:00,
2013-06-17 16:07:00,55.0,50.0,29.91,WNW,296,33.0,37.0,83,0.01,,,0.01,meteohub,2013-06-17 20:07:00,
2013-06-17 16:12:00,54.7,50.2,29.91,NNW,332,9.0,34.0,85,0.05,,,0.05,meteohub,2013-06-17 20:12:00,
2013-06-17 16:17:00,55.0,49.6,29.90,WSW,250,9.0,34.0,82,0.07,,,0.07,meteohub,2013-06-17 20:17:00,
2013-06-17 16:22:00,55.9,49.1,29.90,NW,315,13.0,34.0,78,0.08,,,0.08,meteohub,2013-06-17 20:22:00,
2013-06-17 16:27:00,56.8,50.0,29.89,WNW,296,12.0,29.0,78,0.09,,,0.09,meteohub,2013-06-17 20:27:00,
2013-06-17 16:32:00,57.4,49.8,29.89,NW,315,15.0,29.0,76,0.09,,,0.09,meteohub,2013-06-17 20:32:00,
2013-06-17 16:37:00,58.5,48.4,29.88,WNW,300,10.0,23.0,69,0.09,,,0.09,meteohub,2013-06-17 20:37:00,
2013-06-17 16:42:00,59.7,48.7,29.88,NNW,340,6.0,20.0,67,0.09,,,0.09,meteohub,2013-06-17 20:42:00,
2013-06-17 16:47:00,60.8,51.3,29.88,WSW,252,9.0,23.0,71,0.09,,,0.09,meteohub,2013-06-17 20:47:00,
2013-06-17 16:52:00,61.5,52.0,29.88,NW,319,11.0,23.0,71,0.09,,,0.09,meteohub,2013-06-17 20:52:00,
2013-06-17 16:57:00,61.7,52.9,29.88,WNW,288,12.0,23.0,73,0.09,,,0.09,meteohub,2013-06-17 20:57:00,
2013-06-17 17:02:00,61.9,52.0,29.87,SW,234,12.0,22.0,70,0.09,,,0.09,meteohub,2013-06-17 21:02:00,
2013-06-17 17:07:00,62.6,52.3,29.88,SSW,194,10.0,23.0,69,0.05,,,0.09,meteohub,2013-06-17 21:07:00,
2013-06-17 17:12:00,62.8,51.6,29.88,SW,236,9.0,23.0,67,0.03,,,0.09,meteohub,2013-06-17 21:12:00,
2013-06-17 17:17:00,63.0,51.8,29.88,WSW,255,21.0,23.0,67,0.01,,,0.09,meteohub,2013-06-17 21:17:00,
2013-06-17 17:22:00,63.1,52.0,29.89,West,263,6.0,23.0,67,0.00,,,0.09,meteohub,2013-06-17 21:22:00,
2013-06-17 17:27:00,63.3,52.5,29.89,WSW,254,11.0,21.0,68,0.00,,,0.09,meteohub,2013-06-17 21:27:00,
2013-06-17 17:32:00,63.5,53.1,29.90,WSW,251,13.0,21.0,69,0.00,,,0.09,meteohub,2013-06-17 21:32:00,
2013-06-17 17:37:00,63.9,52.7,29.89,SW,235,14.0,22.0,67,0.00,,,0.09,meteohub,2013-06-17 21:37:00,
2013-06-17 17:42:00,63.9,53.1,29.90,West,281,1.0,22.0,68,0.00,,,0.09,meteohub,2013-06-17 21:42:00,
2013-06-17 17:47:00,64.2,53.4,29.90,WSW,254,13.0,22.0,68,0.00,,,0.09,meteohub,2013-06-17 21:47:00,
2013-06-17 17:52:00,64.2,53.8,29.90,NW,319,3.0,15.0,69,0.00,,,0.09,meteohub,2013-06-17 21:52:00,
2013-06-17 17:57:00,64.8,55.6,29.90,NW,325,1.0,14.0,72,0.00,,,0.09,meteohub,2013-06-17 21:57:00,
2013-06-17 18:02:00,64.8,54.7,29.90,WNW,302,6.0,14.0,70,0.00,,,0.09,meteohub,2013-06-17 22:02:00,
2013-06-17 18:07:00,64.9,55.4,29.90,East,89,1.0,11.0,71,0.00,,,0.09,meteohub,2013-06-17 22:07:00,
2013-06-17 18:12:00,64.9,54.9,29.90,West,280,4.0,11.0,70,0.00,,,0.09,meteohub,2013-06-17 22:12:00,
2013-06-17 18:17:00,65.1,54.7,29.90,West,261,10.0,10.0,69,0.00,,,0.09,meteohub,2013-06-17 22:17:00,
2013-06-17 18:22:00,65.1,54.7,29.90,NW,321,8.0,11.0,69,0.00,,,0.09,meteohub,2013-06-17 22:22:00,
2013-06-17 18:27:00,65.3,56.1,29.90,SW,229,5.0,11.0,72,0.00,,,0.09,meteohub,2013-06-17 22:27:00,
2013-06-17 18:32:00,65.1,54.7,29.90,WSW,258,8.0,11.0,69,0.00,,,0.09,meteohub,2013-06-17 22:32:00,
2013-06-17 18:37:00,65.1,54.7,29.90,SW,227,7.0,10.0,69,0.00,,,0.09,meteohub,2013-06-17 22:37:00,
2013-06-17 18:42:00,64.8,54.3,29.90,WNW,296,9.0,13.0,69,0.00,,,0.09,meteohub,2013-06-17 22:42:00,
2013-06-17 18:47:00,63.9,54.3,29.90,West,268,6.0,13.0,71,0.00,,,0.09,meteohub,2013-06-17 22:47:00,
2013-06-17 18:52:00,63.1,54.0,29.90,West,267,4.0,14.0,72,0.00,,,0.09,meteohub,2013-06-17 22:52:00,
2013-06-17 18:57:00,63.0,55.2,29.91,NNW,331,8.0,14.0,76,0.00,,,0.09,meteohub,2013-06-17 22:57:00,
2013-06-17 19:02:00,62.1,55.8,29.91,NNW,328,9.0,12.0,80,0.00,,,0.09,meteohub,2013-06-17 23:02:00,
2013-06-17 19:07:00,61.2,56.3,29.91,SSE,152,3.0,15.0,84,0.01,,,0.10,meteohub,2013-06-17 23:07:00,
2013-06-17 19:12:00,59.7,56.5,29.91,WNW,296,10.0,15.0,89,0.05,,,0.14,meteohub,2013-06-17 23:12:00,
2013-06-17 19:17:00,58.5,55.2,29.91,WNW,284,4.0,15.0,89,0.12,,,0.21,meteohub,2013-06-17 23:17:00,
2013-06-17 19:22:00,58.3,54.7,29.91,WSW,250,6.0,14.0,88,0.17,,,0.26,meteohub,2013-06-17 23:22:00,
2013-06-17 19:27:00,58.1,54.3,29.91,WNW,298,6.0,14.0,87,0.17,,,0.26,meteohub,2013-06-17 23:27:00,
2013-06-17 19:32:00,57.7,53.6,29.91,NNW,329,7.0,13.0,86,0.17,,,0.26,meteohub,2013-06-17 23:32:00,
2013-06-17 19:37:00,57.9,53.8,29.92,WNW,302,6.0,13.0,86,0.17,,,0.26,meteohub,2013-06-17 23:37:00,
2013-06-17 19:42:00,58.3,53.8,29.92,NW,311,9.0,12.0,85,0.17,,,0.26,meteohub,2013-06-17 23:42:00,
2013-06-17 19:47:00,58.3,53.8,29.92,West,279,7.0,12.0,85,0.17,,,0.26,meteohub,2013-06-17 23:47:00,
2013-06-17 19:52:00,58.5,54.0,29.92,NW,305,5.0,11.0,85,0.17,,,0.26,meteohub,2013-06-17 23:52:00,
2013-06-17 19:57:00,58.6,54.1,29.92,WNW,290,9.0,11.0,85,0.17,,,0.26,meteohub,2013-06-17 23:57:00,
2013-06-17 20:02:00,58.5,54.3,29.92,NW,311,5.0,11.0,86,0.17,,,0.26,meteohub,2013-06-18 00:02:00,
2013-06-17 20:07:00,58.6,54.9,29.91,NW,304,10.0,11.0,87,0.16,,,0.00,meteohub,2013-06-18 00:07:00,
2013-06-17 20:12:00,58.6,55.0,29.92,WNW,294,5.0,11.0,88,0.09,,,0.00,meteohub,2013-06-18 00:12:00,
2013-06-17 20:17:00,58.6,55.0,29.92,NW,306,4.0,11.0,88,0.00,,,0.00,meteohub,2013-06-18 00:17:00,
2013-06-17 20:22:00,58.8,55.2,29.92,NNW,338,8.0,11.0,88,0.00,,,0.00,meteohub,2013-06-18 00:22:00,
2013-06-17 20:27:00,59.0,55.2,29.92,WNW,303,6.0,12.0,87,0.00,,,0.00,meteohub,2013-06-18 00:27:00,
2013-06-17 20:32:00,58.8,55.2,29.92,NW,304,6.0,12.0,88,0.00,,,0.00,meteohub,2013-06-18 00:32:00,
2013-06-17 20:37:00,58.8,55.0,29.92,WNW,296,5.0,12.0,87,0.00,,,0.00,meteohub,2013-06-18 00:37:00,
2013-06-17 20:42:00,58.6,55.0,29.92,WNW,287,8.0,11.0,88,0.00,,,0.00,meteohub,2013-06-18 00:42:00,
2013-06-17 20:47:00,58.6,55.0,29.92,WNW,297,6.0,11.0,88,0.00,,,0.00,meteohub,2013-06-18 00:47:00,
2013-06-17 20:52:00,58.6,55.0,29.92,West,261,7.0,11.0,88,0.00,,,0.00,meteohub,2013-06-18 00:52:00,
2013-06-17 20:57:00,58.6,55.4,29.92,NW,313,7.0,11.0,89,0.00,,,0.00,meteohub,2013-06-18 00:57:00,
2013-06-17 21:02:00,58.6,55.4,29.92,WNW,302,8.0,11.0,89,0.00,,,0.00,meteohub,2013-06-18 01:02:00,
2013-06-17 21:07:00,58.6,55.8,29.92,WSW,240,5.0,11.0,90,0.00,,,0.00,meteohub,2013-06-18 01:07:00,
2013-06-17 21:12:00,58.5,55.8,29.93,WNW,293,4.0,10.0,91,0.00,,,0.00,meteohub,2013-06-18 01:12:00,
2013-06-17 21:17:00,58.5,55.8,29.93,NW,304,8.0,10.0,91,0.00,,,0.00,meteohub,2013-06-18 01:17:00,
2013-06-17 21:22:00,58.5,55.8,29.94,SW,235,4.0,9.0,91,0.00,,,0.00,meteohub,2013-06-18 01:22:00,
2013-06-17 21:27:00,58.6,55.8,29.94,West,265,3.0,9.0,90,0.00,,,0.00,meteohub,2013-06-18 01:27:00,
2013-06-17 21:32:00,58.6,55.8,29.94,West,263,2.0,9.0,90,0.00,,,0.00,meteohub,2013-06-18 01:32:00,
2013-06-17 21:37:00,58.6,55.8,29.94,West,278,2.0,10.0,90,0.00,,,0.00,meteohub,2013-06-18 01:37:00,
2013-06-17 21:42:00,58.6,55.8,29.94,WSW,258,7.0,10.0,90,0.00,,,0.00,meteohub,2013-06-18 01:42:00,
2013-06-17 21:47:00,58.6,55.8,29.94,WNW,287,7.0,9.0,90,0.00,,,0.00,meteohub,2013-06-18 01:47:00,
2013-06-17 21:52:00,58.6,55.4,29.94,West,264,7.0,8.0,89,0.00,,,0.00,meteohub,2013-06-18 01:52:00,
2013-06-17 21:57:00,58.5,55.2,29.95,SW,231,3.0,9.0,89,0.00,,,0.00,meteohub,2013-06-18 01:57:00,
2013-06-17 22:02:00,58.5,55.2,29.95,NNW,329,6.0,9.0,89,0.00,,,0.00,meteohub,2013-06-18 02:02:00,
2013-06-17 22:07:00,58.5,55.2,29.95,SW,222,4.0,9.0,89,0.00,,,0.00,meteohub,2013-06-18 02:07:00,
2013-06-17 22:12:00,58.5,54.9,29.95,WNW,283,7.0,9.0,88,0.00,,,0.00,meteohub,2013-06-18 02:12:00,
2013-06-17 22:17:00,58.5,54.7,29.95,WNW,290,7.0,9.0,87,0.00,,,0.00,meteohub,2013-06-18 02:17:00,
2013-06-17 22:22:00,58.6,54.5,29.95,WNW,288,7.0,9.0,86,0.00,,,0.00,meteohub,2013-06-18 02:22:00,
2013-06-17 22:27:00,58.6,54.1,29.95,NNW,334,5.0,9.0,85,0.00,,,0.00,meteohub,2013-06-18 02:27:00,
2013-06-17 22:32:00,58.8,54.3,29.95,WNW,297,5.0,10.0,85,0.00,,,0.00,meteohub,2013-06-18 02:32:00,
2013-06-17 22:37:00,58.8,54.0,29.96,NNW,331,1.0,11.0,84,0.00,,,0.00,meteohub,2013-06-18 02:37:00,
2013-06-17 22:42:00,59.0,53.8,29.95,WNW,301,6.0,11.0,83,0.00,,,0.00,meteohub,2013-06-18 02:42:00,
2013-06-17 22:47:00,59.2,53.4,29.95,West,279,7.0,14.0,81,0.00,,,0.00,meteohub,2013-06-18 02:47:00,
2013-06-17 22:52:00,59.4,53.2,29.95,SSW,193,5.0,15.0,80,0.00,,,0.00,meteohub,2013-06-18 02:52:00,
2013-06-17 22:57:00,59.5,53.1,29.95,West,269,4.0,15.0,79,0.00,,,0.00,meteohub,2013-06-18 02:57:00,
2013-06-17 23:02:00,59.4,52.2,29.95,WNW,302,7.0,15.0,77,0.00,,,0.00,meteohub,2013-06-18 03:02:00,
2013-06-17 23:07:00,59.4,52.2,29.95,WSW,251,9.0,14.0,77,0.00,,,0.00,meteohub,2013-06-18 03:07:00,
2013-06-17 23:12:00,59.4,52.2,29.95,West,277,6.0,14.0,77,0.00,,,0.00,meteohub,2013-06-18 03:12:00,
2013-06-17 23:17:00,59.4,52.5,29.95,WSW,253,4.0,11.0,78,0.00,,,0.00,meteohub,2013-06-18 03:17:00,
2013-06-17 23:22:00,59.2,52.3,29.95,WSW,257,5.0,11.0,78,0.00,,,0.00,meteohub,2013-06-18 03:22:00,
2013-06-17 23:27:00,59.2,52.3,29.95,WNW,297,6.0,11.0,78,0.00,,,0.00,meteohub,2013-06-18 03:27:00,
2013-06-17 23:32:00,59.4,52.9,29.96,NNW,332,5.0,12.0,79,0.00,,,0.00,meteohub,2013-06-18 03:32:00,
2013-06-17 23:37:00,59.2,52.7,29.96,WSW,242,3.0,12.0,79,0.00,,,0.00,meteohub,2013-06-18 03:37:00,
2013-06-17 23:42:00,58.8,52.7,29.95,NW,319,2.0,11.0,80,0.00,,,0.00,meteohub,2013-06-18 03:42:00,
2013-06-17 23:47:00,58.8,53.4,29.95,SW,232,5.0,11.0,82,0.00,,,0.00,meteohub,2013-06-18 03:47:00,
2013-06-17 23:52:00,58.6,53.2,29.94,WNW,293,5.0,11.0,82,0.00,,,0.00,meteohub,2013-06-18 03:52:00,
2013-06-17 23:57:00,58.5,53.2,29.94,WSW,246,5.0,11.0,83,0.00,,,0.00,meteohub,2013-06-18 03:57:00,